This is the latest recevied weather packets stored in our database for station/object 9M8ZAL-13. If no packets are shown the sender has not sent any weather packets the latest 10 day(s).
| Time | Temp. | Humidity | Pressure | Rain* | Wind** | Luminosity | Snow |
|---|---|---|---|---|---|---|---|
| 1776926324 | 33.33° C | - | 1005 hPa | - | - | 1007 W/m² | - |
| 1776925724 | 33.33° C | - | 1005.1 hPa | - | - | 1006 W/m² | - |
| 1776925124 | 32.78° C | - | 1005.2 hPa | - | - | 1006 W/m² | - |
| 1776924525 | 32.78° C | - | 1005.5 hPa | - | - | 1006 W/m² | - |
| 1776923924 | 32.78° C | - | 1005.8 hPa | - | - | 1005 W/m² | - |
| 1776923324 | 33.33° C | - | 1005.7 hPa | - | - | 1005 W/m² | - |
| 1776922724 | 33.33° C | - | 1005.9 hPa | - | - | 1004 W/m² | - |
| 1776922124 | 33.89° C | - | 1006.1 hPa | - | - | 1004 W/m² | - |
| 1776921524 | 34.44° C | - | 1006.3 hPa | - | - | 1007 W/m² | - |
| 1776920924 | 33.89° C | - | 1006.4 hPa | - | - | 1006 W/m² | - |
| 1776920324 | 33.89° C | - | 1006.7 hPa | - | - | 1005 W/m² | - |
| 1776919724 | 34.44° C | - | 1006.8 hPa | - | - | 1005 W/m² | - |
| 1776919124 | 33.33° C | - | 1007 hPa | - | - | 1006 W/m² | - |
| 1776918524 | 34.44° C | - | 1007 hPa | - | - | 1005 W/m² | - |
| 1776917924 | 33.89° C | - | 1007.3 hPa | - | - | 1007 W/m² | - |
| 1776917324 | 33.33° C | - | 1007.5 hPa | - | - | 1007 W/m² | - |
| 1776916724 | 33.33° C | - | 1007.6 hPa | - | - | 1005 W/m² | - |
| 1776916124 | 33.33° C | - | 1007.9 hPa | - | - | 1007 W/m² | - |
| 1776915524 | 33.33° C | - | 1008.1 hPa | - | - | 1005 W/m² | - |
| 1776914924 | 32.78° C | - | 1008.3 hPa | - | - | 1006 W/m² | - |
| 1776914324 | 32.78° C | - | 1008.5 hPa | - | - | 1006 W/m² | - |
| 1776913724 | 32.78° C | - | 1008.6 hPa | - | - | 1005 W/m² | - |
| 1776913123 | 33.33° C | - | 1008.6 hPa | - | - | 1007 W/m² | - |
| 1776912524 | 32.78° C | - | 1008.7 hPa | - | - | 1007 W/m² | - |
| 1776911924 | 32.22° C | - | 1008.7 hPa | - | - | 1008 W/m² | - |
* Rain since midnight (hover to see other rain measurements)
** Current wind speed in m/s (hover to see current wind gust speed)